This is the latest recevied weather packets stored in our database for station/object SQ7RAF-15. If no packets are shown the sender has not sent any weather packets the latest 10 day(s).
| Time | Temp. | Humidity | Pressure | Rain* | Wind** | Luminosity | Snow |
|---|---|---|---|---|---|---|---|
| 1778305224 | 8.89° C | 89% | 1020.1 hPa | 0 mm | - | 110 W/m² | - |
| 1778304936 | 8.89° C | 89% | 1019.9 hPa | 0 mm | - | 98 W/m² | - |
| 1778304648 | 8.89° C | 90% | 1019.9 hPa | 0 mm | - | 113 W/m² | - |
| 1778304328 | 8.89° C | 90% | 1020 hPa | 0 mm | - | 101 W/m² | - |
| 1778304040 | 8.89° C | 91% | 1019.9 hPa | 0 mm | - | 92 W/m² | - |
| 1778303720 | 8.89° C | 92% | 1020 hPa | 0 mm | - | 93 W/m² | - |
| 1778303432 | 8.33° C | 92% | 1019.9 hPa | 0 mm | - | 76 W/m² | - |
| 1778303144 | 8.33° C | 93% | 1019.9 hPa | 0 mm | - | 64 W/m² | - |
| 1778302824 | 8.33° C | 93% | 1019.9 hPa | 0 mm | - | 67 W/m² | - |
| 1778302536 | 8.33° C | 93% | 1019.8 hPa | 0 mm | - | 63 W/m² | - |
| 1778302248 | 8.33° C | 94% | 1019.7 hPa | 0 mm | - | 55 W/m² | - |
| 1778301928 | 8.33° C | 94% | 1019.8 hPa | 0 mm | - | 48 W/m² | - |
| 1778301640 | 8.33° C | 94% | 1019.7 hPa | 0 mm | - | 41 W/m² | - |
| 1778301320 | 8.33° C | 94% | 1019.7 hPa | 0 mm | - | 36 W/m² | - |
| 1778301032 | 8.33° C | 94% | 1019.8 hPa | 0 mm | - | 32 W/m² | - |
| 1778300744 | 8.33° C | 94% | 1019.7 hPa | 0 mm | - | 27 W/m² | - |
| 1778300424 | 8.33° C | 94% | 1019.7 hPa | 0 mm | - | 21 W/m² | - |
| 1778300120 | 8.33° C | 94% | 1019.7 hPa | 0 mm | - | 16 W/m² | - |
| 1778299832 | 8.33° C | 95% | 1019.7 hPa | 0 mm | - | 12 W/m² | - |
| 1778299544 | 8.33° C | 95% | 1019.7 hPa | 0 mm | - | 10 W/m² | - |
| 1778299224 | 8.33° C | 95% | 1019.5 hPa | 0 mm | - | 9 W/m² | - |
| 1778298937 | 8.33° C | 95% | 1019.6 hPa | 0 mm | - | 7 W/m² | - |
| 1778298648 | 8.33° C | 95% | 1019.6 hPa | 0 mm | - | 6 W/m² | - |
| 1778298329 | 8.33° C | 95% | 1019.5 hPa | 0 mm | - | 5 W/m² | - |
| 1778298040 | 8.33° C | 95% | 1019.6 hPa | 0 mm | - | 4 W/m² | - |
* Rain latest hour (hover to see other rain measurements)
** Current wind speed in m/s (hover to see current wind gust speed)